Home > Weather > Mombasa > Past weeks

Flag for Kenya Weather for the Past 2 Weeks in Mombasa, Kenya

Now
86 °F

Partly sunny.


Feels Like: 92 °F
Forecast: 78 / 89 °F
Wind: 8 mph from Northeast

Location: Mombasa Airport

Current Time: Feb 10, 2016 at 12:04:32 PM

Latest Report: Feb 10, 2016 at 11:00 AM


Visibility: N/A

Pressure: 29.89 "Hg

Humidity: 62%

Dew point: 72 °F

Location of MombasaLocation

Historic Weather in Mombasa — Graph

°F

Mombasa Temperature Yesterday

Maximum temperature yesterday: 88 °F (at 2:00 PM)
Minimum temperature yesterday: 79 °F (at 2:00 AM)
Average temperature yesterday: 81 °F

High & Low Weather Summary for the Past Weeks

 TemperatureHumidityPressure
High95 °F (Feb 3, 1:00 PM)100% (Feb 3, 10:00 AM)29.98 "Hg (Feb 3, 10:00 AM)
Low75 °F (Jan 27, 5:00 AM)39% (Feb 6, 7:00 PM)29.74 "Hg (Jan 27, 4:00 PM)
Average83 °F74%29.87 "Hg
* Reported Jan 26 11:00 AM — Feb 10 11:00 AM, Mombasa, Weather by CustomWeather, © 2016

Note: Actual official high and low records may vary slightly from our data, if they occured in-between our weather recording intervals... More about our weather records

Advertising

Mombasa Weather History for the Previous 24 Hours

 ConditionsComfort  
Time TempWeatherWind HumidityBarometerVisibility
11:00 AM
Wed, Feb 10
86 °FPartly sunny.8 mph62%29.89 "HgN/A
10:00 AM84 °FBroken clouds.8 mph70%29.92 "HgN/A
9:00 AM81 °FBroken clouds.8 mph84%29.92 "HgN/A
8:00 AM79 °FPartly sunny.5 mph89%29.92 "HgN/A
7:00 AM77 °FPartly sunny.3 mph94%29.89 "HgN/A
6:00 AM77 °FPassing clouds.No wind94%29.89 "HgN/A
3:00 AM79 °FPassing clouds.3 mph89%29.86 "HgN/A
2:00 AM77 °FPassing clouds.5 mph94%29.86 "HgN/A
12:00 AM79 °FPassing clouds.No wind89%29.89 "HgN/A
11:00 PM
Tue, Feb 9
79 °FPassing clouds.No wind94%29.89 "HgN/A
10:00 PM81 °FPassing clouds.7 mph84%29.89 "HgN/A
9:00 PM81 °FPassing clouds.6 mph84%29.89 "HgN/A
8:30 PM81 °FPassing clouds.6 mph84%29.86 "HgN/A
7:00 PM81 °FPassing clouds.8 mph79%29.83 "HgN/A
6:00 PM82 °FScattered showers. Partly sunny.8 mph74%29.80 "HgN/A
5:00 PM82 °FPartly sunny.7 mph79%29.80 "HgN/A
4:00 PM84 °FPartly sunny.8 mph74%29.83 "HgN/A
3:00 PM84 °FPartly sunny.7 mph74%29.83 "HgN/A
2:00 PM88 °FPartly sunny.7 mph70%29.86 "HgN/A
1:00 PM84 °FBroken clouds.3 mph79%29.89 "HgN/A
12:00 PM82 °FPartly sunny.No wind84%29.92 "HgN/A
Weather by CustomWeather, © 2016

See weather overviewHow to use our weather pages